Weather History for Crestview, FL

Change the Weather History Date:

Monday, July 14, 2014

  Actual Average Record
Temperature  
Mean Temperature 80 °F -  
Max Temperature 91 °F 93 °F 105 °F (1980)
Min Temperature 70 °F 71 °F 68 °F (1993)
Cooling Degree Days 15    
Growing Degree Days 30 (Base 50)    
Moisture  
Dew Point 72 °F    
Average Humidity 79    
Maximum Humidity 97    
Minimum Humidity 54    
Precipitation  
Precipitation 0.00 in - - ()
Sea Level Pressure  
Sea Level Pressure 30.05 in    
Wind  
Wind Speed 3 mph (SSW)    
Max Wind Speed 15 mph    
Max Gust Speed 21 mph    
Visibility 8 miles    
Events Rain , Thunderstorm    
Averages and records for this station are not official NWS values.
T = Trace of Precipitation, MM = Missing Value Source: NWS Daily Summary

Daily Weather History Graph

Daily Weather History Graph

Search for Another Location

Airport:

Trip Planner

Search our weather history database for the weather conditions in past years. The results will help you decide how hot, cold, wet, or windy it might be!

Date:

Astronomy

Jul. 14, 2014 Rise Set
Actual Time 5:52 AM CDT 7:50 PM CDT
Civil Twilight 5:25 AM CDT 8:17 PM CDT
Nautical Twilight 4:52 AM CDT 8:50 PM CDT
Astronomical Twilight 4:17 AM CDT 9:25 PM CDT
Moon 9:36 PM CDT (7/14) 8:21 AM CDT (7/14)
Length of Visible Light 14h 52m
Length of Day
13h 57m
Waning Gibbous, 93% of the Moon is Illuminated
Jul 14
Waning Gibbous
Jul 18
Last Quarter
Jul 26
New
Aug 3
First Quarter
Aug 10
Full

Hourly Weather History & Observations

Time (CDT) Temp. Heat Index Dew Point Humidity Pressure Visibility Wind Dir Wind Speed Gust Speed Precip Events Conditions
12:53 AM 73.9 °F - 73.0 °F 97% 30.07 in 7.0 mi Calm Calm - N/A   Partly Cloudy
1:53 AM 73.0 °F - 72.0 °F 96% 30.06 in 6.0 mi Calm Calm - N/A   Clear
2:53 AM 72.0 °F - 71.1 °F 97% 30.05 in 5.0 mi East 3.5 mph - N/A   Clear
3:53 AM 72.0 °F - 71.1 °F 97% 30.05 in 4.0 mi Calm Calm - N/A   Clear
4:01 AM 71.1 °F - 70.0 °F 96% 30.06 in 2.0 mi Calm Calm - N/A   Clear
4:10 AM 72.0 °F - 71.1 °F 97% 30.06 in 6.0 mi Calm Calm - N/A   Clear
4:53 AM 71.1 °F - 70.0 °F 96% 30.06 in 5.0 mi Calm Calm - N/A   Clear
5:53 AM 70.0 °F - 69.1 °F 97% 30.08 in 5.0 mi Calm Calm - N/A   Clear
6:53 AM 73.0 °F - 72.0 °F 96% 30.09 in 6.0 mi Calm Calm - N/A   Clear
7:53 AM 80.1 °F 85.1 °F 75.0 °F 85% 30.09 in 10.0 mi Calm Calm - N/A   Clear
8:53 AM 82.9 °F 89.4 °F 73.9 °F 74% 30.09 in 10.0 mi South 4.6 mph - N/A   Clear
9:53 AM 86.0 °F 92.2 °F 72.0 °F 63% - 10.0 mi WSW 6.9 mph - N/A   Scattered Clouds
10:53 AM 89.1 °F 96.0 °F 72.0 °F 57% 30.08 in 10.0 mi SW 4.6 mph - N/A Thunderstorm Thunderstorm
11:11 AM 88.0 °F 93.8 °F 71.1 °F 57% 30.09 in 10.0 mi Variable 6.9 mph - N/A Thunderstorm Partly Cloudy
11:27 AM 84.0 °F 91.2 °F 73.9 °F 72% 30.09 in 10.0 mi SW 12.7 mph - 0.00 in Rain , Thunderstorm Light Thunderstorms and Rain
11:49 AM 78.8 °F - 71.6 °F 78% 30.10 in 10.0 mi South 9.2 mph - 0.00 in Rain Light Rain
11:53 AM 79.0 °F - 72.0 °F 79% 30.09 in 10.0 mi South 8.1 mph - 0.00 in Rain Light Rain
12:23 PM 82.0 °F 85.9 °F 70.0 °F 67% 30.09 in 10.0 mi South 4.6 mph - 0.00 in Thunderstorm Clear
12:38 PM 82.9 °F 87.5 °F 71.1 °F 67% 30.08 in 10.0 mi Variable 4.6 mph - 0.00 in   Clear
12:53 PM 86.0 °F 92.2 °F 72.0 °F 63% 30.07 in 10.0 mi South 8.1 mph - 0.00 in   Clear
3:53 PM 90.0 °F 96.4 °F 71.1 °F 54% 30.00 in 10.0 mi SSW 13.8 mph - N/A   Scattered Clouds
5:53 PM 88.0 °F 93.8 °F 71.1 °F 57% 29.98 in 10.0 mi SSW 15.0 mph 20.7 mph N/A   Partly Cloudy
6:53 PM 86.0 °F 92.2 °F 72.0 °F 63% 29.98 in 10.0 mi SSW 8.1 mph - N/A   Clear
7:53 PM 82.9 °F 88.8 °F 73.0 °F 72% 29.98 in 10.0 mi SSW 5.8 mph - N/A   Partly Cloudy
8:53 PM 80.1 °F 84.2 °F 73.0 °F 79% 29.99 in 10.0 mi South 3.5 mph - N/A   Clear
9:53 PM 79.0 °F - 73.9 °F 84% 30.01 in 10.0 mi South 3.5 mph - N/A   Clear
10:53 PM 79.0 °F - 73.9 °F 84% 30.02 in 10.0 mi SW 3.5 mph - N/A   Scattered Clouds
11:53 PM 79.0 °F - 71.1 °F 77% 30.02 in 10.0 mi Calm Calm - N/A   Mostly Cloudy